FW8363 Weather Reports


Display with metric or nautical units.
time (UTC)temp
F
wind
direction
speed
MPH
gust
MPH
rain 1hr
in
rain 24hr
in
rain mn
in
humidity
%
barometer
mb
20220702211133 85 122 7.0 13.0 0.00 0.00 0.00 81 1016.4
20220702210700 85 111 8.0 14.0 0.00 0.00 0.00 80 1016.3
20220702205658 85 120 8.0 14.0 0.00 0.00 0.00 80 1016.5
20220702203547 85 129 8.0 16.0 0.00 0.00 0.00 79 1016.5
20220702203202 85 117 10.0 16.0 0.00 0.00 0.00 79 1016.5
20220702202551 86 113 8.0 13.0 0.00 0.00 0.00 78 1016.5
20220702202103 86 122 8.0 12.0 0.00 0.00 0.00 78 1016.5
20220702201618 85 103 7.0 14.0 0.00 0.00 0.00 78 1016.5
20220702201158 85 127 6.0 14.0 0.00 0.00 0.00 79 1016.5
20220702195035 85 136 8.0 14.0 0.00 0.00 0.00 81 1016.7
20220702194604 85 129 9.0 14.0 0.00 0.00 0.00 80 1016.6
20220702194146 85 115 10.0 15.0 0.00 0.00 0.00 80 1016.6
20220702192526 86 131 9.0 14.0 0.00 0.00 0.00 79 1016.7
20220702192047 86 126 10.0 14.0 0.00 0.00 0.00 78 1016.7
20220702191618 86 124 10.0 14.0 0.00 0.00 0.00 78 1016.7
20220702191144 85 126 8.0 15.0 0.00 0.00 0.00 75 1016.7
20220702185013 86 131 7.0 13.0 0.00 0.00 0.00 81 1017.1
20220702184531 85 120 8.0 13.0 0.00 0.00 0.00 81 1017.2
20220702184111 85 132 8.0 13.0 0.00 0.00 0.00 81 1017.2
20220702182013 86 117 10.0 16.0 0.00 0.00 0.00 80 1017.2
20220702181609 86 114 8.0 11.0 0.00 0.00 0.00 79 1017.2
20220702173115 85 142 8.0 18.0 0.00 0.00 0.00 80 1017.8
20220702172622 85 152 8.0 19.0 0.00 0.00 0.00 81 1017.9
20220702172146 85 128 8.0 19.0 0.00 0.00 0.00 81 1017.9
20220702165521 86 127 9.0 15.0 0.00 0.00 0.00 78 1017.9
20220702165039 86 98 9.0 15.0 0.00 0.00 0.00 78 1017.9
20220702164616 86 113 9.0 14.0 0.00 0.00 0.00 79 1018.1
20220702164158 86 122 9.0 14.0 0.00 0.00 0.00 78 1018.0
20220702160031 86 97 9.0 15.0 0.00 0.00 0.00 79 1018.0
20220702154603 86 99 9.0 15.0 0.00 0.00 0.00 80 1017.8
20220702152631 86 120 8.0 14.0 0.00 0.00 0.00 79 1017.9
20220702151134 86 97 11.0 16.0 0.00 0.00 0.00 78 1017.9
20220702150018 86 126 10.0 17.0 0.00 0.00 0.00 78 1017.8
20220702143039 85 117 11.0 16.0 0.00 0.00 0.00 79 1017.7
20220702142201 85 99 10.0 15.0 0.00 0.00 0.00 80 1017.5
20220702134119 85 114 9.0 16.0 0.00 0.00 0.00 80 1017.3
20220702131141 85 103 11.0 16.0 0.00 0.00 0.00 80 1017.0
20220702125631 85 144 10.0 14.0 0.00 0.00 0.00 80 1016.8
20220702124518 85 116 9.0 13.0 0.00 0.00 0.00 80 1016.8
20220702124027 85 120 10.0 15.0 0.00 0.00 0.00 80 1016.7
20220702123537 84 114 9.0 15.0 0.00 0.00 0.00 80 1016.7
20220702123025 84 109 10.0 15.0 0.00 0.00 0.00 80 1016.7
20220702122536 84 129 9.0 15.0 0.00 0.00 0.00 80 1016.7
20220702122022 84 117 9.0 15.0 0.00 0.00 0.00 80 1016.6
20220702121531 84 104 10.0 14.0 0.00 0.00 0.00 79 1016.7
20220702121041 84 136 8.0 16.0 0.00 0.00 0.00 80 1016.6
20220702120530 84 124 9.0 14.0 0.00 0.00 0.00 80 1016.7
20220702120039 84 115 10.0 14.0 0.00 0.00 0.00 80 1016.6
20220702115526 84 121 8.0 15.0 0.00 0.00 0.00 81 1016.5
20220702115035 84 102 10.0 15.0 0.00 0.00 0.00 80 1016.5
20220702114524 84 105 10.0 14.0 0.00 0.00 0.00 81 1016.4
20220702114037 84 121 7.0 12.0 0.00 0.00 0.00 80 1016.4
20220702113522 84 117 8.0 12.0 0.00 0.00 0.00 81 1016.3
20220702113031 84 111 7.0 15.0 0.00 0.00 0.00 82 1016.3
20220702112539 84 114 9.0 14.0 0.00 0.00 0.00 81 1016.3
20220702112028 84 99 9.0 14.0 0.00 0.00 0.00 80 1016.3
20220702111538 84 132 8.0 15.0 0.00 0.00 0.00 82 1016.2
20220702111041 84 123 10.0 15.0 0.00 0.00 0.00 81 1016.2
20220702110528 84 121 9.0 15.0 0.00 0.00 0.00 81 1016.1
20220702110031 83 134 10.0 15.0 0.00 0.00 0.00 81 1016.2
20220702105537 83 129 8.0 13.0 0.00 0.00 0.00 82 1016.2
20220702105029 83 130 9.0 13.0 0.00 0.00 0.00 82 1016.2
20220702104534 83 126 9.0 13.0 0.00 0.00 0.00 82 1016.2
20220702104027 84 117 8.0 13.0 0.00 0.00 0.00 83 1016.1
20220702103532 83 117 8.0 13.0 0.00 0.00 0.00 82 1016.1
20220702103014 83 126 8.0 14.0 0.00 0.00 0.00 82 1016.0
20220702102523 84 120 10.0 14.0 0.00 0.00 0.00 83 1016.0
20220702102032 83 124 8.0 16.0 0.00 0.00 0.00 82 1016.0
20220702101532 83 130 9.0 16.0 0.00 0.00 0.00 81 1016.0
20220702101041 83 126 8.0 14.0 0.00 0.00 0.00 81 1016.0
20220702100531 83 117 9.0 14.0 0.00 0.00 0.00 81 1015.9
20220702100034 83 134 8.0 14.0 0.00 0.00 0.00 82 1015.8
20220702095523 83 103 9.0 13.0 0.00 0.00 0.00 82 1015.8
20220702095034 83 117 7.0 13.0 0.00 0.00 0.00 82 1015.8
20220702094534 83 134 8.0 15.0 0.00 0.00 0.00 82 1015.8
20220702094024 83 118 10.0 15.0 0.00 0.00 0.00 81 1015.6
20220702093536 83 122 9.0 16.0 0.00 0.00 0.00 81 1015.6
20220702093022 83 114 9.0 16.0 0.00 0.00 0.00 84 1015.7
20220702092531 83 86 8.0 13.0 0.00 0.00 0.00 85 1015.6
20220702092039 83 113 8.0 13.0 0.00 0.00 0.00 85 1015.7
20220702091533 83 95 8.0 13.0 0.00 0.00 0.00 85 1015.7
20220702091039 83 111 7.0 11.0 0.00 0.00 0.00 85 1015.8
20220702090528 83 125 8.0 13.0 0.00 0.00 0.00 85 1015.7
20220702090021 83 117 8.0 15.0 0.00 0.00 0.00 84 1015.6
20220702085533 83 84 8.0 15.0 0.00 0.00 0.00 84 1015.7
20220702085019 83 117 9.0 13.0 0.00 0.00 0.00 84 1015.7
20220702084528 83 122 9.0 16.0 0.00 0.00 0.00 83 1015.7
20220702084017 83 120 9.0 15.0 0.00 0.00 0.00 84 1015.8
20220702083525 83 120 8.0 13.0 0.00 0.00 0.00 84 1015.7
20220702083034 83 109 8.0 13.0 0.00 0.00 0.00 84 1015.9
20220702082532 83 104 7.0 13.0 0.00 0.00 0.00 84 1015.8
20220702082041 83 124 9.0 13.0 0.00 0.00 0.00 83 1015.7
20220702081533 83 95 9.0 12.0 0.00 0.00 0.00 83 1015.7
20220702081040 83 123 6.0 13.0 0.00 0.00 0.00 83 1015.7
20220702080532 83 103 9.0 11.0 0.00 0.00 0.00 83 1015.7
20220702080028 83 105 7.0 12.0 0.00 0.00 0.00 83 1015.8
20220702075540 83 87 8.0 13.0 0.00 0.00 0.00 84 1015.8
20220702075028 83 96 8.0 14.0 0.00 0.00 0.00 83 1015.8
20220702074537 83 130 9.0 14.0 0.00 0.00 0.00 83 1015.8
20220702074025 83 124 8.0 15.0 0.00 0.00 0.00 83 1015.9
20220702073535 83 113 10.0 15.0 0.00 0.00 0.00 83 1015.8
20220702073023 83 117 8.0 14.0 0.00 0.00 0.00 84 1015.9
20220702072532 83 87 9.0 14.0 0.00 0.00 0.00 84 1015.9
20220702072041 83 155 10.0 14.0 0.00 0.00 0.00 84 1015.8
20220702071530 84 111 9.0 16.0 0.00 0.00 0.00 84 1015.9
20220702071041 84 130 11.0 16.0 0.00 0.00 0.00 84 1015.9
20220702070528 84 126 9.0 14.0 0.00 0.00 0.00 84 1016.0
20220702070033 84 118 9.0 17.0 0.00 0.00 0.00 84 1016.0
20220702065523 84 105 10.0 17.0 0.00 0.00 0.00 83 1016.0
20220702065031 84 103 10.0 16.0 0.00 0.00 0.00 83 1015.9
20220702064520 84 126 10.0 18.0 0.00 0.00 0.00 83 1016.0
20220702064029 84 114 12.0 18.0 0.00 0.00 0.00 83 1016.0
20220702063520 84 102 13.0 17.0 0.00 0.00 0.00 83 1016.1
20220702063029 84 98 12.0 16.0 0.00 0.00 0.00 84 1016.2
20220702062536 84 90 12.0 18.0 0.00 0.00 0.00 84 1016.3
20220702062047 84 97 13.0 18.0 0.00 0.00 0.00 83 1016.4
20220702061533 84 105 12.0 18.0 0.00 0.00 0.00 84 1016.5
20220702061042 84 111 12.0 17.0 0.00 0.00 0.00 83 1016.5
20220702060533 84 89 11.0 16.0 0.00 0.00 0.00 83 1016.6
20220702060040 84 132 9.0 14.0 0.00 0.00 0.00 83 1016.7
20220702055533 84 99 10.0 17.0 0.00 0.00 0.00 83 1016.7
20220702055039 84 105 10.0 17.0 0.00 0.00 0.00 83 1016.8
20220702054527 84 95 11.0 17.0 0.00 0.00 0.00 83 1016.8
20220702054036 84 92 10.0 15.0 0.00 0.00 0.00 84 1016.8
20220702053529 84 114 8.0 15.0 0.00 0.00 0.00 84 1016.7
20220702053036 84 101 9.0 14.0 0.00 0.00 0.00 83 1016.7
20220702052546 84 94 9.0 16.0 0.00 0.00 0.00 83 1016.7
20220702052031 84 115 10.0 16.0 0.00 0.00 0.00 82 1016.8
20220702051540 84 113 10.0 14.0 0.00 0.00 0.00 82 1016.8
20220702051028 84 99 9.0 15.0 0.00 0.00 0.00 82 1016.9
20220702050530 84 99 9.0 16.0 0.00 0.00 0.00 82 1016.9
20220702050033 84 102 11.0 16.0 0.00 0.00 0.00 82 1016.9
20220702045521 84 103 8.0 15.0 0.00 0.00 0.00 83 1016.9
20220702045031 84 92 10.0 15.0 0.00 0.00 0.00 83 1016.9
20220702044521 84 107 11.0 15.0 0.00 0.00 0.00 82 1017.0
20220702044030 84 88 10.0 15.0 0.00 0.00 0.00 83 1017.0
20220702043521 84 86 9.0 12.0 0.00 0.00 0.00 83 1017.0
20220702043027 84 90 9.0 12.0 0.00 0.00 0.00 83 1017.1
20220702042536 84 95 8.0 14.0 0.00 0.00 0.00 82 1017.3
20220702042044 84 96 10.0 14.0 0.00 0.00 0.00 82 1017.3
20220702041535 84 86 10.0 14.0 0.00 0.00 0.00 82 1017.3
20220702041042 84 92 8.0 12.0 0.00 0.00 0.00 82 1017.4
20220702040531 84 90 7.0 15.0 0.00 0.00 0.00 82 1017.4
20220702040025 84 86 8.0 15.0 0.00 0.00 0.00 82 1017.4
20220702035535 84 113 8.0 13.0 0.00 0.00 0.00 82 1017.4
20220702035024 84 93 9.0 14.0 0.00 0.00 0.00 82 1017.5
20220702034532 84 111 9.0 14.0 0.00 0.00 0.00 81 1017.5
20220702034021 84 92 10.0 15.0 0.00 0.00 0.00 81 1017.5
20220702033530 84 107 9.0 13.0 0.00 0.00 0.00 81 1017.6
20220702033020 84 87 8.0 12.0 0.00 0.00 0.00 81 1017.7
20220702032528 84 88 9.0 12.0 0.00 0.00 0.00 81 1017.7
20220702032037 84 99 8.0 11.0 0.00 0.00 0.00 81 1017.8
20220702031539 84 109 7.0 13.0 0.00 0.00 0.00 81 1017.8
20220702031036 84 109 10.0 13.0 0.00 0.00 0.00 81 1017.7
20220702030525 84 95 8.0 12.0 0.00 0.00 0.00 81 1017.8
20220702030021 84 97 9.0 12.0 0.00 0.00 0.00 81 1017.7
20220702025521 84 103 7.0 13.0 0.00 0.00 0.00 81 1017.7
20220702025020 84 103 8.0 14.0 0.00 0.00 0.00 81 1017.6
20220702024529 84 79 9.0 14.0 0.00 0.00 0.00 80 1017.6
20220702024018 84 94 9.0 14.0 0.00 0.00 0.00 80 1017.6
20220702023528 84 68 9.0 14.0 0.00 0.00 0.00 81 1017.6
20220702023028 84 84 10.0 14.0 0.00 0.00 0.00 81 1017.6
20220702022526 84 90 9.0 15.0 0.00 0.00 0.00 81 1017.7
20220702022024 84 79 8.0 15.0 0.00 0.00 0.00 81 1017.7
20220702021523 84 111 9.0 15.0 0.00 0.00 0.00 80 1017.7
20220702021023 84 111 11.0 15.0 0.00 0.00 0.00 80 1017.6
20220702020521 84 97 9.0 14.0 0.00 0.00 0.00 80 1017.5
20220702020025 84 129 9.0 16.0 0.00 0.00 0.00 81 1017.5
20220702015528 84 118 10.0 16.0 0.00 0.00 0.00 81 1017.6
20220702015027 84 105 10.0 15.0 0.00 0.00 0.00 81 1017.6
20220702014523 84 98 10.0 15.0 0.00 0.00 0.00 81 1017.5
20220702014023 84 107 11.0 15.0 0.00 0.00 0.00 81 1017.4
20220702013531 84 120 10.0 15.0 0.00 0.00 0.00 81 1017.4
20220702013021 84 107 8.0 17.0 0.00 0.00 0.00 81 1017.5
20220702012529 84 92 10.0 16.0 0.00 0.00 0.00 81 1017.5
20220702012028 84 89 10.0 15.0 0.00 0.00 0.00 82 1017.4
20220702011527 84 92 10.0 15.0 0.00 0.00 0.00 81 1017.4
20220702011028 84 109 9.0 14.0 0.00 0.00 0.00 81 1017.5
20220702010525 84 104 9.0 14.0 0.00 0.00 0.00 82 1017.6
20220702010022 84 107 10.0 14.0 0.00 0.00 0.00 81 1017.5
20220702005521 84 110 8.0 15.0 0.00 0.00 0.00 82 1017.5
20220702005020 84 117 10.0 15.0 0.00 0.00 0.00 81 1017.5
20220702004521 84 104 9.0 13.0 0.00 0.00 0.00 82 1017.4
20220702004018 84 77 8.0 15.0 0.00 0.00 0.00 82 1017.5
20220702003527 84 92 9.0 15.0 0.00 0.00 0.00 82 1017.5
20220702003028 84 94 9.0 15.0 0.00 0.00 0.00 81 1017.4
20220702002506 84 100 9.0 15.0 0.00 0.00 0.00 81 1017.3
20220702002014 84 120 9.0 15.0 0.00 0.00 0.00 81 1017.2
20220702001536 84 73 10.0 15.0 0.00 0.00 0.00 81 1017.0
20220702001033 84 113 10.0 15.0 0.00 0.00 0.00 82 1016.9
20220702000529 84 117 8.0 17.0 0.00 0.00 0.00 81 1016.7
20220702000028 84 80 11.0 17.0 0.00 0.00 0.00 81 1016.6
20220701235526 84 91 9.0 14.0 0.00 0.00 0.00 81 1016.5
20220701235027 84 114 11.0 15.0 0.00 0.00 0.00 81 1016.6
20220701234525 84 90 10.0 15.0 0.00 0.00 0.00 81 1016.5
20220701234023 84 109 11.0 15.0 0.00 0.00 0.00 81 1016.5
20220701233522 85 87 10.0 14.0 0.00 0.00 0.00 81 1016.5
20220701233004 85 83 8.0 14.0 0.00 0.00 0.00 81 1016.4
20220701232510 85 106 9.0 15.0 0.00 0.00 0.00 81 1016.4
20220701232020 85 86 10.0 19.0 0.00 0.00 0.00 81 1016.3
20220701231528 85 101 10.0 19.0 0.00 0.00 0.00 81 1016.3
20220701231027 85 93 11.0 17.0 0.00 0.00 0.00 80 1016.3
20220701230525 85 80 10.0 15.0 0.00 0.00 0.00 80 1016.4
20220701230042 85 105 11.0 15.0 0.00 0.00 0.00 80 1016.4
20220701225608 85 108 11.0 15.0 0.00 0.00 0.00 79 1016.3
20220701225130 85 99 9.0 17.0 0.00 0.00 0.00 80 1016.2
20220701224653 85 98 12.0 17.0 0.00 0.00 0.00 79 1016.1
20220701222530 85 99 11.0 16.0 0.00 0.00 0.00 79 1016.0
20220701222045 85 106 12.0 17.0 0.00 0.00 0.00 78 1016.0
20220701221559 85 100 13.0 17.0 0.00 0.00 0.00 78 1016.0
20220701221142 86 75 10.0 16.0 0.00 0.00 0.00 79 1016.0
20220701215010 85 59 11.0 17.0 0.00 0.00 0.00 79 1015.8
20220701214539 85 114 8.0 16.0 0.00 0.00 0.00 79 1015.8
20220701214100 85 98 10.0 16.0 0.00 0.00 0.00 80 1015.7
20220701213629 85 115 11.0 16.0 0.00 0.00 0.00 78 1015.6
20220701213200 85 103 10.0 17.0 0.00 0.00 0.00 79 1015.7